Regional Weather Roundup
Issued by NWS Sioux Falls, SD

Home | Current Version | Previous Version | Text Only | Print | Product List | Glossary On
Versions: 1 2 3 4 5 6 7 8 9 10 11 12 13 14 15 16 17 18 19 20 21 22 23 24 25 26 27 28 29 30 31 32 33 34 35 36 37 38 39 40 41 42 43 44 45 46 47 48 49 50
000
ASUS43 KFSD 062102
RWRFSD

WEATHER ROUNDUP FOR SE SOUTH DAKOTA/SW MINNESOTA/NW IOWA
NATIONAL WEATHER SERVICE SIOUX FALLS SD
400 PM CDT WED MAY 06 2015

NOTE: "FAIR" INDICATES FEW OR NO CLOUDS BELOW 12,000 FEET WITH NO
SIGNIFICANT WEATHER AND OR OBSTRUCTIONS TO VISIBILITY.


SDZ038>040-050-052>070-062200-
SOUTHEAST SOUTH DAKOTA

CITY           SKY/WX    TMP DP  RH WIND       PRES   REMARKS
BROOKINGS      PTSUNNY   63  61  94 S17G24    29.75S
CHAMBERLAIN    NOT AVBL
HURON          LGT RAIN  67  62  84 S18G31    29.65F
MADISON        MOCLDY    64  64 100 S23G30    29.73F
MITCHELL       PTSUNNY   71  60  68 S24G36    29.67F
SIOUX FALLS    CLOUDY    71  59  65 S23G33    29.73F
WINNER         CLOUDY    69  60  73 S12       29.62F
YANKTON        PTSUNNY   66  61  82 SE21G33   29.71S
$$

MNZ071-072-080-081-089-090-097-098-062200-
SOUTHWEST MINNESOTA

CITY           SKY/WX    TMP DP  RH WIND       PRES   REMARKS
FAIRMONT       PTSUNNY   73  43  33 S24G32    29.83S
JACKSON        MOSUNNY   73  55  53 S22G31    29.83F
LUVERNE        PTSUNNY   73  57  56 S25G33    29.76F
MARSHALL       PTSUNNY   72  57  60 S24G33    29.75F
MONTEVIDEO     CLOUDY    70  64  83 S20G28    29.76F
REDWOOD FALLS  CLOUDY    73  65  75 S25G33    29.79S
TRACY          MOSUNNY   73  59  62 S18G32    29.77F
WORTHINGTON    CLOUDY    72  57  60 S22G32    29.79F
$$

IAZ001>003-012>014-020>022-031-032-NEZ013-014-SDZ071-062200-
NORTHWEST IOWA

CITY           SKY/WX    TMP DP  RH WIND       PRES   REMARKS
DENISON        CLOUDY    70  64  83 S15G29    29.81F HAZE
ESTHERVILLE    MOSUNNY   74  57  55 S28G40    29.82F
SIOUX CITY     CLOUDY    66  61  84 SE15      29.78F
SPENCER        PTSUNNY   74  59  59 S30G39    29.82S
$$

ABBREVIATIONS USED IN REMARKS
   TC - TEMPERATURE IN CELSIUS
  WCI - WIND CHILL INDEX
   HX - HEAT INDEX
  VSB - VISIBILITY



USA.gov is the U.S. government's official web portal to all federal, state and local government web resources and services.